GW5212 Weather Reports


time (UTC)temp
C
wind
direction
speed
KPH
gust
KPH
rain 1hr
cm
rain 24hr
cm
rain mn
cm
humidity
%
barometer
mb
20260509075518 22 38 4.8 19.3 0.00 0.48 0.00 90 1020.3
20260509074521 22 29 4.8 24.1 0.00 0.48 0.00 90 1020.3
20260509073518 22 36 1.6 11.3 0.00 0.48 0.00 90 1020.3
20260509072521 22 23 3.2 16.1 0.00 0.48 0.00 91 1020.4
20260509071518 22 22 3.2 19.3 0.00 0.48 0.00 91 1020.3
20260509070542 22 34 4.8 24.1 0.00 0.48 0.00 92 1020.4
20260509065523 22 42 1.6 27.4 0.00 0.48 0.00 92 1020.3
20260509064540 22 31 4.8 24.1 0.00 0.48 0.00 93 1020.5
20260509063525 22 21 1.6 16.1 0.00 0.48 0.00 94 1020.4
20260509062540 22 53 3.2 19.3 0.00 0.48 0.00 93 1020.5
20260509061545 22 30 1.6 16.1 0.00 0.48 0.00 92 1020.6
20260509060519 22 23 3.2 16.1 0.00 0.48 0.00 91 1020.8
20260509055525 22 22 1.6 16.1 0.00 0.48 0.00 90 1020.9
20260509054522 23 30 6.4 24.1 0.00 0.48 0.00 90 1020.9
20260509053522 23 40 4.8 24.1 0.00 0.48 0.00 91 1020.9
20260509052641 23 40 4.8 24.1 0.00 0.48 0.00 90 1020.9
20260509051518 23 7 6.4 35.4 0.00 0.48 0.00 89 1020.9
20260509050521 23 51 9.7 35.4 0.00 0.48 0.00 88 1021.0
20260509045522 23 32 6.4 24.1 0.00 0.51 0.00 88 1021.0
20260509044540 23 39 6.4 24.1 0.00 0.51 0.00 88 1021.2
20260509043543 23 32 8.0 27.4 0.00 0.51 0.00 89 1021.4
20260509042525 24 41 3.2 24.1 0.00 0.51 0.00 88 1021.4
20260509041518 24 43 4.8 24.1 0.00 0.51 0.00 88 1021.4
20260509040521 25 43 4.8 19.3 0.00 0.51 0.00 87 1021.4
20260509035519 25 34 1.6 11.3 0.00 0.51 0.00 87 1021.5
20260509034521 25 5 1.6 11.3 0.00 0.51 0.00 85 1021.5
20260509033522 25 68 0.0 11.3 0.00 0.51 0.00 86 1021.5
20260509032518 25 42 0.0 11.3 0.00 0.51 0.00 86 1021.7
20260509031519 25 53 0.0 8.0 0.00 0.51 0.00 86 1021.8
20260509030519 25 43 3.2 16.1 0.00 0.51 0.00 86 1021.8
20260509025519 25 29 1.6 16.1 0.00 0.51 0.00 86 1021.9
20260509024521 25 47 1.6 11.3 0.00 0.51 0.00 85 1021.8
20260509023523 25 13 0.0 11.3 0.00 0.51 0.00 85 1021.7
20260509022521 25 43 1.6 11.3 0.00 0.51 0.00 85 1021.6
20260509021523 25 88 0.0 8.0 0.00 0.51 0.00 86 1021.8
20260509020600 25 354 0.0 3.2 0.00 0.51 0.00 86 1021.9
20260509015539 25 37 0.0 11.3 0.00 0.51 0.00 87 1021.9
20260509014521 24 29 1.6 11.3 0.00 0.51 0.00 87 1021.8
20260509013543 24 357 0.0 8.0 0.00 0.51 0.00 90 1021.8
20260509012519 24 351 0.0 11.3 0.00 0.51 0.00 92 1021.8
20260509011518 25 37 0.0 11.3 0.00 0.51 0.00 92 1021.7
20260509010542 25 74 0.0 8.0 0.00 0.51 0.00 88 1021.6
20260509005522 25 356 0.0 0.0 0.00 0.51 0.00 87 1021.5
20260509004521 25 86 0.0 0.0 0.00 0.51 0.00 86 1021.3
20260509003519 25 51 0.0 0.0 0.00 0.51 0.00 86 1021.4
20260509002523 25 318 0.0 0.0 0.00 0.51 0.00 87 1021.3
20260509001542 24 251 0.0 0.0 0.00 0.51 0.00 88 1021.3
20260509000518 24 211 0.0 0.0 0.00 0.51 0.00 88 1021.2
20260508235522 24 85 0.0 0.0 0.00 0.51 0.00 90 1021.1
20260508234518 23 300 0.0 0.0 0.00 0.51 0.00 90 1020.9
20260508233518 23 244 0.0 0.0 0.00 0.51 0.00 91 1020.8
20260508232538 23 219 0.0 0.0 0.00 0.51 0.00 93 1020.7
20260508231522 23 282 0.0 0.0 0.00 0.51 0.00 92 1020.7
20260508230521 22 284 0.0 0.0 0.00 0.51 0.00 93 1020.5
20260508225522 22 2 0.0 0.0 0.00 0.51 0.00 95 1020.3
20260508224522 22 323 0.0 0.0 0.00 0.51 0.00 96 1020.4
20260508223523 22 293 0.0 0.0 0.00 0.51 0.00 97 1020.4
20260508222519 22 304 0.0 0.0 0.00 0.51 0.00 98 1020.4
20260508221518 22 30 0.0 0.0 0.00 0.51 0.00 98 1020.3
20260508220518 22 60 0.0 0.0 0.00 0.51 0.00 99 1020.1
20260508215518 22 287 0.0 0.0 0.00 0.51 0.00 99 1020.1
20260508214519 22 243 0.0 0.0 0.00 0.51 0.00 98 1020.0
20260508213518 22 233 0.0 0.0 0.00 0.51 0.00 98 1019.9
20260508212522 22 249 0.0 0.0 0.00 0.51 0.00 98 1019.8
20260508211518 22 279 0.0 0.0 0.00 0.51 0.00 98 1019.7
20260508210521 22 269 0.0 0.0 0.00 0.51 0.00 98 1019.7
20260508205519 22 285 0.0 0.0 0.00 0.51 0.00 98 1019.6
20260508204521 22 272 0.0 0.0 0.00 0.51 0.00 98 1019.6
20260508203519 22 266 0.0 0.0 0.00 0.51 0.00 98 1019.5
20260508202540 22 229 0.0 0.0 0.00 0.51 0.00 98 1019.5
20260508201518 22 242 0.0 0.0 0.00 0.51 0.00 97 1019.4
20260508200518 22 273 0.0 0.0 0.00 0.51 0.00 97 1019.3
20260508195519 22 244 0.0 0.0 0.00 0.51 0.00 97 1019.2
20260508194518 22 265 0.0 0.0 0.00 0.51 0.00 97 1019.1
20260508193518 22 261 0.0 0.0 0.00 0.51 0.00 97 1019.3
20260508192522 22 260 0.0 0.0 0.00 0.51 0.00 98 1019.1
20260508191518 22 279 0.0 0.0 0.00 0.51 0.00 98 1019.2
20260508190519 22 243 0.0 0.0 0.00 0.51 0.00 98 1019.3
20260508185523 22 254 0.0 0.0 0.00 0.51 0.00 98 1019.3
20260508184524 22 283 0.0 0.0 0.00 0.51 0.00 99 1019.4
20260508183523 22 337 0.0 0.0 0.00 0.51 0.00 99 1019.4
20260508182605 22 281 0.0 0.0 0.00 0.51 0.00 99 1019.5
20260508181524 22 261 0.0 0.0 0.00 0.51 0.00 99 1019.5
20260508180525 22 264 0.0 0.0 0.00 0.51 0.00 99 1019.6
20260508175524 22 257 0.0 0.0 0.00 0.51 0.00 99 1019.5
20260508174518 22 122 0.0 0.0 0.00 0.51 0.00 99 1019.6
20260508173605 22 297 0.0 0.0 0.00 0.51 0.00 99 1019.6
20260508172524 22 235 0.0 0.0 0.00 0.51 0.00 99 1019.8
20260508171524 22 272 0.0 0.0 0.00 0.51 0.00 99 1019.9
20260508170518 22 274 0.0 0.0 0.00 0.51 0.00 99 1020.1
20260508165524 22 275 0.0 0.0 0.00 0.51 0.00 99 1020.2
20260508164519 22 211 0.0 0.0 0.00 0.51 0.00 99 1020.1
20260508163523 22 329 0.0 0.0 0.00 0.51 0.00 99 1020.2
20260508162539 22 347 0.0 0.0 0.00 0.51 0.00 99 1020.3
20260508161520 22 265 0.0 0.0 0.00 0.51 0.00 99 1020.4
20260508160518 22 249 0.0 0.0 0.00 0.51 0.00 99 1020.5
20260508155524 22 258 0.0 0.0 0.00 0.51 0.51 99 1020.6
20260508154519 22 312 0.0 0.0 0.00 0.51 0.51 99 1020.6
20260508153540 22 275 0.0 0.0 0.00 0.51 0.51 99 1020.7
20260508152642 22 221 0.0 0.0 0.00 0.51 0.51 99 1020.8
20260508151518 22 214 0.0 0.0 0.00 0.51 0.51 99 1020.7
20260508150523 22 220 0.0 0.0 0.00 0.51 0.51 99 1020.7
20260508145541 22 284 0.0 0.0 0.00 0.51 0.51 99 1020.7
20260508144521 22 225 0.0 0.0 0.00 0.51 0.51 99 1020.8
20260508143520 22 245 0.0 0.0 0.00 0.51 0.51 99 1020.7
20260508142521 22 268 0.0 0.0 0.00 0.51 0.51 99 1020.8
20260508141518 23 285 0.0 0.0 0.00 0.51 0.51 99 1020.8
20260508140518 23 271 0.0 0.0 0.00 0.51 0.51 99 1020.7
20260508135601 23 301 0.0 0.0 0.00 0.51 0.51 99 1020.7
20260508134518 23 231 0.0 0.0 0.03 0.51 0.51 99 1020.8
20260508133520 23 177 0.0 0.0 0.05 0.51 0.51 99 1020.6
20260508132523 23 203 0.0 0.0 0.10 0.51 0.51 99 1020.5
20260508131518 23 198 0.0 0.0 0.10 0.51 0.51 99 1020.5
20260508130602 23 248 0.0 0.0 0.10 0.51 0.51 99 1020.3
20260508125520 23 249 0.0 0.0 0.10 0.51 0.51 99 1020.3
20260508123539 23 281 0.0 0.0 0.03 0.46 0.46 99 1020.3
20260508122521 23 265 0.0 0.0 0.00 0.43 0.43 99 1019.9
20260508121520 23 221 0.0 0.0 0.00 0.43 0.43 99 1019.8
20260508120521 23 249 0.0 0.0 0.00 0.43 0.43 99 1019.7
20260508115523 23 271 0.0 0.0 0.00 0.43 0.43 99 1019.6
20260508114519 23 250 0.0 0.0 0.03 0.43 0.43 99 1019.5
20260508113520 23 284 0.0 0.0 0.05 0.43 0.43 99 1019.5
20260508112521 23 259 0.0 0.0 0.20 0.43 0.43 99 1019.4
20260508111518 23 267 0.0 0.0 0.28 0.43 0.43 99 1019.3
20260508110518 23 274 0.0 0.0 0.30 0.43 0.43 99 1019.2
20260508105540 23 313 0.0 0.0 0.33 0.43 0.43 99 1019.0
20260508104603 23 77 0.0 0.0 0.33 0.38 0.38 99 1019.0
20260508103518 23 255 0.0 0.0 0.30 0.36 0.36 99 1018.8
20260508102518 23 335 0.0 0.0 0.15 0.20 0.20 99 1018.8
20260508101520 23 249 0.0 0.0 0.13 0.15 0.15 99 1018.8
20260508100542 23 9 0.0 0.0 0.10 0.13 0.13 98 1018.6
20260508095519 24 20 0.0 8.0 0.05 0.10 0.10 97 1018.6
20260508094518 24 351 0.0 8.0 0.03 0.05 0.05 96 1018.5
20260508093520 25 11 1.6 11.3 0.03 0.05 0.05 95 1018.4
20260508092518 25 282 0.0 0.0 0.03 0.05 0.05 95 1018.2
20260508091520 25 241 0.0 0.0 0.00 0.03 0.03 93 1018.0
20260508090521 25 329 0.0 0.0 0.00 0.03 0.03 93 1017.9
20260508085518 25 71 0.0 0.0 0.00 0.03 0.03 91 1017.8
20260508084519 25 243 0.0 0.0 0.00 0.03 0.03 90 1017.9
20260508083518 25 16 0.0 3.2 0.00 0.03 0.03 89 1017.7
20260508082521 26 9 0.0 0.0 0.00 0.03 0.03 89 1017.8
20260508081521 26 5 0.0 8.0 0.00 0.03 0.03 89 1017.7
20260508080518 26 42 0.0 8.0 0.00 0.03 0.03 89 1017.6